Overview Statistics Trail Chart Weather Telemetry Raw packets
 

This is the latest recevied weather packets stored in our database for station/object KC5TIL. If no packets are shown the sender has not sent any weather packets the latest 10 day(s).

<< 92 93 94 95 96 97 98 >>
Time Temp. Humidity Pressure Rain* Wind** Luminosity Snow
1787922964 29.44° C 68% 1019 hPa 0 mm - 65 W/m² -
1787922664 29.44° C 69% 1019.1 hPa 0 mm - 59 W/m² -
1787922362 29.44° C 68% 1019 hPa 0 mm - 54 W/m² -
1787922061 28.89° C 67% 1018.9 hPa 0 mm - 49 W/m² -
1787921755 28.89° C 68% 1018.8 hPa 0 mm - 45 W/m² -
1787921455 27.78° C 70% 1018.9 hPa 0 mm - 40 W/m² -
1787921145 27.78° C 70% 1018.7 hPa 0 mm - 35 W/m² -
1787920839 27.22° C 72% 1018.8 hPa 0 mm - 31 W/m² -
1787920534 27.22° C 73% 1018.6 hPa 0 mm - 25 W/m² -
1787920234 26.67° C 75% 1018.7 hPa 0 mm - 21 W/m² -
1787919927 26.11° C 76% 1018.5 hPa 0 mm - 17 W/m² -
1787919626 26.11° C 76% 1018.6 hPa 0 mm - 13 W/m² -
1787919322 26.11° C 76% 1018.4 hPa 0 mm - 9 W/m² -
1787919017 26.11° C 76% 1018.2 hPa 0 mm - 6 W/m² -
1787918712 26.11° C 75% 1018.3 hPa 0 mm - 3 W/m² -
1787918414 26.11° C 76% 1018.2 hPa 0 mm - 1 W/m² -
1787918104 26.11° C 76% 1018.3 hPa 0 mm - 0 W/m² -
1787917798 26.11° C 76% 1018.2 hPa 0 mm - 0 W/m² -
1787917495 26.11° C 76% 1018 hPa 0 mm - 0 W/m² -
1787917191 26.11° C 76% 1018.1 hPa 0 mm - 0 W/m² -
1787916890 26.11° C 75% 1018.3 hPa 0 mm - 0 W/m² -
1787916589 26.67° C 74% 1018.2 hPa 0 mm - 0 W/m² -
1787916284 26.67° C 74% 1018.1 hPa 0 mm - 0 W/m² -
1787915979 26.67° C 73% 1018 hPa 0 mm - 0 W/m² -
1787915675 26.67° C 73% 1017.9 hPa 0 mm - 0 W/m² -

* Rain latest hour (hover to see other rain measurements)
** Current wind speed in m/s (hover to see current wind gust speed)